Regional Weather Roundup
Issued by NWS Little Rock, AR

Home | Current Version | Previous Version | Graphics & Text | Print | Product List | Glossary On
Versions: 1 2 3 4 5 6 7 8 9 10 11 12 13 14 15 16 17 18 19 20 21 22 23 24 25 26 27 28 29 30 31 32 33 34 35 36 37 38 39 40 41 42
000
ASUS44 KLZK 020305
RWRLZK

WEATHER ROUNDUP FOR ARKANSAS
NATIONAL WEATHER SERVICE LITTLE ROCK AR
1000 PM CDT WED OCT 01 2014

NOTE: "FAIR" INDICATES FEW OR NO CLOUDS BELOW 12,000 FEET WITH NO
SIGNIFICANT WEATHER AND/OR OBSTRUCTIONS TO VISIBILITY.

ARZ001-003-010-029-020400-
NORTHWEST ARKANSAS

CITY           SKY/WX    TMP DP  RH WIND       PRES   REMARKS
FAYETTEVILLE   CLEAR     75  68  78 S10       29.84R
FORT SMITH     CLEAR     75  68  78 E5        29.81R
HARRISON       CLEAR     73  68  84 SE7       29.85S
BENTONVILLE    CLEAR     75  66  73 S6        29.83S
ROGERS         CLEAR     74  67  78 S9        29.84R
SILOAM SPGS    CLEAR     73  64  73 S13       29.83S
HIGHFILL       CLEAR     73  68  84 S10       29.82S
$$

ARZ004-005-016-020400-
NORTH CENTRAL ARKANSAS

CITY           SKY/WX    TMP DP  RH WIND       PRES   REMARKS
BATESVILLE     CLEAR     75  70  83 SE5       29.86F
FLIPPIN        CLEAR     77  64  65 SE6       29.85S
MTN HOME       CLEAR     75  69  81 SE6       29.85R
$$

ARZ040-041-020400-
WEST CENTRAL ARKANSAS

CITY           SKY/WX    TMP DP  RH WIND       PRES   REMARKS
MENA           CLEAR     81  72  74 CALM      29.86S
MOUNT IDA      CLEAR     79  70  74 CALM      29.84R
$$

ARZ009-017-025-026-028-020400-
NORTHEAST ARKANSAS

CITY           SKY/WX    TMP DP  RH WIND       PRES   REMARKS
CORNING          N/A     72  66  83 SE8       29.88S
JONESBORO      CLEAR     73  67  81 CALM      29.88S
NEWPORT        CLEAR     72  68  87 E14       29.88S
WALNUT RIDGE   CLEAR     72  64  78 SE6       29.87S
BLYTHEVILLE    PTCLDY    74  67  78 S5        29.90S
$$

ARZ022-023-033-042-044-020400-
CENTRAL ARKANSAS

CITY           SKY/WX    TMP DP  RH WIND       PRES   REMARKS
LITTLE ROCK    PTCLDY    75  69  81 S6        29.86S SMOKE
N LITTLE ROCK  PTCLDY    77  72  85 S6        29.86R
JACKSONVILLE   CLEAR     76  70  82 SE3       29.86S
SEARCY         CLEAR     73  71  93 SE5       29.87F
HOT SPRINGS    CLEAR     79  70  74 VRB7      29.86R
RUSSELLVILLE   CLEAR     76  70  82 CALM      29.84R
CLINTON        FAIR      75  72  88 CALM      29.86S FOG
$$

ARZ036-020400-
EAST ARKANSAS

CITY           SKY/WX    TMP DP  RH WIND       PRES   REMARKS
WEST MEMPHIS   CLEAR     73  67  81 SE9       29.88F
$$

ARZ050-053-066-070-073-020400-
SOUTHWEST ARKANSAS

CITY           SKY/WX    TMP DP  RH WIND       PRES   REMARKS
ARKADELPHIA    FAIR      74  73  96 CALM      29.86R
CAMDEN         CLEAR     75  68  78 S5        29.86S
EL DORADO      CLEAR     76  71  85 SE5       29.87R
DE QUEEN       CLEAR     78  71  79 SE6       29.82R
$$

ARZ056-057-069-020400-
SOUTHEAST ARKANSAS

CITY           SKY/WX    TMP DP  RH WIND       PRES   REMARKS
PINE BLUFF     CLEAR     73  67  81 S7        29.87R
STUTTGART      CLEAR    N/A N/A N/A SE9       29.87S
MONTICELLO     CLEAR     77  68  73 CALM      29.88S

$$




USA.gov is the U.S. government's official web portal to all federal, state and local government web resources and services.